This is the latest recevied weather packets stored in our database for station/object WB5CFT. If no packets are shown the sender has not sent any weather packets the latest 10 day(s).
| Time | Temp. | Humidity | Pressure | Rain* | Wind** | Luminosity | Snow |
|---|---|---|---|---|---|---|---|
| 1777829750 | 20° C | 52% | 1021.9 hPa | 0 mm | - | 574 W/m² | - |
| 1777829447 | 19.44° C | 52% | 1022 hPa | 0 mm | - | 530 W/m² | - |
| 1777829144 | 19.44° C | 53% | 1022.3 hPa | 0 mm | - | 644 W/m² | - |
| 1777828842 | 19.44° C | 53% | 1022.3 hPa | 0 mm | - | 574 W/m² | - |
| 1777828538 | 19.44° C | 53% | 1022.3 hPa | 0 mm | - | 444 W/m² | - |
| 1777828236 | 18.89° C | 53% | 1022.5 hPa | 0 mm | - | 601 W/m² | - |
| 1777827932 | 18.89° C | 54% | 1022.6 hPa | 0 mm | - | 630 W/m² | - |
| 1777827629 | 18.89° C | 54% | 1022.7 hPa | 0 mm | - | 554 W/m² | - |
| 1777827326 | 18.89° C | 53% | 1022.6 hPa | 0 mm | - | 314 W/m² | - |
| 1777827023 | 18.89° C | 55% | 1022.4 hPa | 0 mm | - | 533 W/m² | - |
| 1777826720 | 18.89° C | 56% | 1022.4 hPa | 0 mm | - | 418 W/m² | - |
| 1777826416 | 18.33° C | 56% | 1022.5 hPa | 0 mm | - | 561 W/m² | - |
| 1777826114 | 18.89° C | 55% | 1022.4 hPa | 0 mm | - | 283 W/m² | - |
| 1777825810 | 18.89° C | 55% | 1022.3 hPa | 0 mm | - | 430 W/m² | - |
| 1777825508 | 17.78° C | 57% | 1022.6 hPa | 0 mm | - | 580 W/m² | - |
| 1777825206 | 17.78° C | 57% | 1022.6 hPa | 0 mm | - | 368 W/m² | - |
| 1777824902 | 18.33° C | 57% | 1022.8 hPa | 0 mm | - | 499 W/m² | - |
| 1777824598 | 17.78° C | 58% | 1022.6 hPa | 0 mm | - | 119 W/m² | - |
| 1777824295 | 17.22° C | 59% | 1022.7 hPa | 0 mm | - | 189 W/m² | - |
| 1777823990 | 17.22° C | 59% | 1022.9 hPa | 0 mm | - | 107 W/m² | - |
| 1777823688 | 17.22° C | 58% | 1023 hPa | 0 mm | - | 104 W/m² | - |
| 1777823384 | 17.22° C | 61% | 1022.8 hPa | 0 mm | - | 93 W/m² | - |
| 1777823082 | 17.22° C | 59% | 1022.9 hPa | 0 mm | - | 100 W/m² | - |
| 1777822780 | 16.67° C | 59% | 1022.8 hPa | 0 mm | - | 234 W/m² | - |
| 1777822478 | 16.67° C | 60% | 1022.9 hPa | 0 mm | - | 106 W/m² | - |
* Rain latest hour (hover to see other rain measurements)
** Current wind speed in m/s (hover to see current wind gust speed)